Theta_e
331 330 328 328 328 329 330 330 330 331 332 334 335 336 334 333 334 341 344 348 348 350 350 350 350 350 349 345 348 350 348 346 349 355 358 357 356 353 349 351 348 343 342 341
332 331 331 329 329 329 329 329 330 331 332 334 333 333 334 335 338 339 343 346 349 351 353 352 346 342 343 343 343 344 345 348 356 359 357 359 358 353 352 349 346 344 343 339
331 330 330 331 331 331 330 330 330 331 331 332 333 334 334 335 335 336 338 343 348 351 352 349 349 344 342 350 346 346 348 359 359 353 354 355 354 354 353 349 346 344 340 336
331 330 332 330 330 330 330 330 331 331 332 333 333 332 333 336 337 337 337 340 347 350 351 346 348 344 346 351 350 353 358 355 349 351 353 354 353 353 348 344 342 339 334 332
330 332 332 330 332 331 330 331 331 332 332 332 331 333 333 334 334 337 338 341 347 349 349 342 349 348 346 345 350 357 345 342 344 347 351 354 351 348 343 340 338 333 333 335
327 329 332 331 332 331 332 334 333 332 333 333 332 335 335 333 336 340 340 347 350 349 351 352 352 347 344 356 356 348 335 333 334 338 344 349 350 344 341 339 335 334 336 336
325 327 329 330 332 332 335 333 332 332 333 333 337 335 340 341 342 345 348 350 350 351 353 354 351 347 347 347 332 325 324 322 325 327 333 347 348 343 341 337 338 336 336 334
325 327 328 332 337 335 334 333 340 339 337 335 336 343 342 345 347 349 350 351 353 353 352 350 342 336 337 326 326 325 329 335 337 344 347 349 345 342 339 336 337 336 335 334
326 327 331 327 336 334 341 342 342 341 340 338 341 342 344 347 348 350 349 347 347 347 347 346 341 331 323 323 323 324 328 336 345 347 348 346 344 341 339 336 336 335 335 333
327 327 329 331 336 339 340 341 342 341 341 341 342 344 346 347 346 344 343 341 339 336 335 334 333 332 332 335 337 336 338 344 346 348 346 345 343 341 340 338 335 335 334 333
331 330 331 335 337 340 342 342 341 340 340 340 340 339 336 332 331 329 328 327 324 324 322 319 316 315 314 314 317 334 345 342 344 344 344 344 341 340 337 337 336 335 333 332
331 331 336 332 337 342 341 340 339 338 338 337 334 331 330 329 329 329 328 328 327 326 327 327 324 317 315 314 316 322 334 343 341 340 341 339 338 337 335 334 332 330 329 327
338 336 336 341 340 340 340 338 337 336 333 331 330 331 330 329 328 325 324 324 323 320 319 318 318 318 319 320 322 319 323 323 325 337 335 337 337 336 333 332 331 330 329 325
334 335 337 339 340 339 338 336 332 329 330 330 330 330 328 325 326 325 322 320 317 317 317 318 319 319 320 322 321 321 320 325 333 336 334 334 334 333 332 331 328 327 326 325
334 333 336 337 336 335 332 329 329 329 328 327 327 326 325 325 325 325 319 321 319 320 321 323 321 322 321 320 323 326 332 332 333 332 332 332 332 331 331 330 326 321 323 315
332 332 332 331 329 328 328 328 328 328 328 328 327 327 326 325 322 320 319 319 326 324 328 328 322 322 322 325 325 331 331 330 332 332 331 331 332 331 331 329 326 320 317 315
329 330 328 327 327 327 327 326 325 324 324 324 324 324 324 324 324 324 320 320 325 328 330 332 329 324 328 331 331 330 330 330 328 330 330 330 329 330 330 329 326 322 320 317
328 327 327 327 327 327 327 327 328 328 328 328 328 328 327 327 327 327 327 327 329 330 331 325 324 324 323 323 324 327 328 329 329 329 329 330 329 329 328 328 327 323 320 316
329 329 329 329 329 329 328 329 329 329 329 329 328 328 329 328 328 329 329 329 330 331 330 323 324 324 324 322 324 326 327 327 327 328 327 328 328 328 328 327 325 322 321 315
327 327 327 327 327 327 327 327 327 327 328 329 329 329 329 330 328 329 330 330 330 331 325 325 326 326 323 322 321 326 327 327 326 326 327 327 327 327 327 326 325 323 320 317
323 323 324 324 324 325 325 325 325 325 325 325 326 327 329 330 330 330 329 327 328 325 328 326 328 327 326 325 322 326 325 326 326 327 326 327 327 326 325 324 323 321 319 317
323 322 322 322 322 322 323 323 324 324 324 326 326 327 327 328 329 330 330 330 330 326 327 327 326 322 324 322 326 326 325 325 324 324 325 325 326 325 324 322 320 321 318 313
320 321 322 322 322 322 322 323 323 323 324 325 325 326 325 328 327 327 328 328 329 326 327 325 321 319 319 323 324 324 323 323 323 323 324 324 324 322 321 322 320 317 315 313
319 320 322 323 323 323 323 323 323 322 322 323 323 325 326 326 325 326 326 326 326 324 325 320 318 318 323 321 319 320 321 323 323 323 320 321 321 318 318 317 316 315 314 312
319 319 318 317 316 316 317 320 322 323 323 322 323 322 321 322 324 323 324 324 322 323 322 316 316 318 319 319 318 317 317 319 319 317 317 316 315 317 318 316 315 314 312 311
320 320 319 320 319 318 317 316 315 318 322 320 320 320 320 320 319 323 323 322 322 321 321 317 317 317 318 317 316 316 316 313 313 313 314 314 314 313 314 314 313 311 310 309
320 319 319 318 318 318 317 316 316 315 316 318 318 318 318 318 319 320 319 316 317 318 319 318 316 315 315 315 315 315 315 314 313 312 312 312 311 311 311 310 309 309 308 307
Wind_Speed
24 22 19 21 22 20 24 24 23 22 26 22 20 14 17 14 16 14 14 17 20 21 21 22 23 23 23 22 21 20 20 18 18 18 18 21 22 23 24 25 29 25 25 20
21 21 20 19 19 21 26 25 24 24 20 12 20 22 12 13 16 18 17 19 19 21 21 23 25 25 23 21 19 17 16 15 14 15 18 18 18 17 21 26 21 23 20 12
17 21 21 23 31 29 25 21 20 22 17 16 16 17 19 18 18 18 21 20 20 23 23 23 23 23 21 18 18 17 16 14 13 14 14 13 13 17 22 16 16 19 15 12
13 15 25 21 24 26 25 23 22 21 19 14 18 20 23 17 16 20 23 21 17 19 19 22 20 20 20 19 18 16 14 11 8 6 7 9 12 14 14 16 16 15 14 13
12 17 14 24 4 17 20 26 25 24 21 24 25 22 27 26 26 27 20 17 18 19 19 21 21 22 23 21 19 16 12 7 4 4 5 6 8 11 13 15 15 14 13 13
11 22 29 18 13 16 16 19 19 23 23 23 25 17 14 25 19 16 12 15 16 19 22 23 24 25 23 20 18 15 10 5 2 3 5 8 12 13 13 13 13 13 12 12
17 17 14 14 16 16 19 9 20 23 27 28 18 20 13 5 6 8 9 12 18 19 22 24 25 24 22 19 16 10 4 4 7 9 10 15 20 16 12 14 13 13 12 11
18 22 25 2 6 16 14 15 7 8 11 19 20 7 5 6 9 13 17 18 20 23 24 24 23 21 20 17 13 12 9 9 11 14 15 21 19 16 14 14 13 12 11 10
18 17 4 33 23 15 5 4 4 5 6 9 14 11 13 17 18 21 22 22 22 25 24 22 20 18 17 14 11 8 6 10 14 16 17 20 16 15 13 14 12 12 12 11
16 21 19 19 22 15 11 10 7 6 10 16 19 20 22 23 24 25 26 24 23 23 23 21 18 14 13 9 8 7 9 7 7 11 19 18 15 14 13 12 14 13 12 9
17 14 18 19 18 14 10 8 11 15 19 23 31 30 31 29 25 25 27 24 22 20 17 15 11 9 7 5 5 5 5 8 11 14 12 10 14 14 12 15 15 10 9 7
13 18 18 21 22 15 15 17 21 30 30 28 29 36 35 31 29 24 22 21 21 20 18 16 13 11 9 7 5 6 9 9 3 8 14 14 15 11 13 12 13 14 11 8
11 14 20 9 17 18 21 21 22 26 36 36 30 30 28 29 22 24 22 20 18 16 15 13 12 10 8 7 4 5 5 5 9 9 9 12 12 10 11 12 12 12 11 11
20 13 11 20 24 23 28 28 28 28 29 29 27 24 24 26 23 21 19 15 12 10 9 9 10 10 7 4 1 3 1 4 4 6 7 9 10 9 8 10 7 11 11 12
18 18 13 17 25 28 30 33 33 29 27 25 21 22 19 18 18 16 18 15 13 13 14 13 13 8 5 1 3 1 4 5 7 7 8 9 8 9 8 9 11 11 17 19
23 18 25 28 31 32 34 32 30 25 21 18 18 16 15 16 15 14 14 13 12 12 11 9 9 4 4 1 4 5 6 8 7 4 4 4 7 8 9 13 13 14 17 17
27 32 34 32 30 27 25 25 24 21 19 17 17 16 15 15 13 10 9 8 8 9 9 8 6 3 2 3 4 5 4 3 5 4 6 6 7 7 8 10 13 15 15 16
27 29 29 30 29 28 25 23 21 18 17 15 15 14 12 10 9 8 7 8 10 11 10 7 4 2 0 2 2 1 3 3 4 5 6 6 7 9 11 12 13 16 17 19
29 28 29 28 25 25 23 21 18 16 14 13 11 10 8 8 8 8 9 10 11 10 8 5 3 2 2 2 1 1 3 4 4 4 6 9 8 9 10 12 16 17 17 19
31 29 28 26 22 21 19 16 15 12 10 8 7 7 6 6 7 8 9 9 7 6 6 4 2 1 2 4 3 3 4 5 4 5 6 8 9 9 10 13 16 18 18 21
29 27 22 21 19 16 14 12 11 10 8 7 7 6 6 6 6 8 10 10 9 10 7 5 2 1 2 3 5 4 5 5 6 7 7 7 8 10 13 16 19 19 20 21
21 19 18 16 15 14 12 11 11 10 9 7 6 5 6 6 7 8 9 9 9 10 7 4 3 6 6 6 5 6 6 6 5 5 6 7 9 12 13 15 17 18 21 19
21 16 15 17 17 16 14 12 11 10 10 9 9 8 9 8 7 7 8 10 10 11 7 7 6 5 8 8 6 5 5 5 5 6 7 6 9 12 14 15 17 20 20 20
19 17 18 17 15 14 14 12 11 11 11 10 9 10 9 7 5 6 8 12 12 11 8 7 9 12 13 9 9 8 8 8 7 7 9 12 14 13 17 18 17 16 14 15
18 18 18 17 17 16 14 11 10 9 9 9 8 7 7 7 6 6 8 10 11 10 7 14 15 16 10 8 8 8 9 9 8 8 10 13 14 13 12 13 13 14 15 14
13 14 13 14 13 13 11 10 10 9 6 8 6 5 5 3 5 7 7 9 8 9 9 14 10 8 9 8 6 6 7 7 7 8 8 10 11 11 11 12 13 13 13 13
12 11 10 10 10 10 10 9 9 7 7 7 5 3 4 7 5 8 10 9 8 9 11 11 9 8 7 6 5 6 7 7 7 7 9 10 10 10 11 11 12 13 12 11
Wind_Direction
232 254 215 204 210 206 222 229 230 232 233 232 248 235 248 250 263 260 243 225 205 201 195 193 193 195 199 204 208 211 219 228 233 231 227 232 234 237 239 227 231 235 239 252
227 229 244 235 230 220 218 228 238 245 252 226 237 246 247 243 252 252 243 235 213 202 197 195 191 193 194 194 201 205 210 215 213 214 224 222 232 233 230 230 232 233 239 223
225 225 231 241 230 227 233 230 233 238 241 248 233 247 246 249 260 260 256 242 216 206 198 195 192 187 186 185 186 184 187 189 197 215 224 228 235 235 227 231 212 219 223 216
224 213 223 249 227 226 240 236 233 241 240 234 238 251 251 242 263 269 264 256 231 204 193 192 186 178 175 171 171 172 169 178 193 204 222 228 229 225 199 198 207 214 217 212
222 223 233 246 202 226 220 234 232 234 231 238 239 246 247 254 257 256 258 239 216 196 184 179 173 171 168 165 164 161 159 155 167 191 210 208 214 189 192 200 205 207 203 203
212 236 234 234 236 214 231 240 229 228 230 227 231 236 247 253 255 241 236 202 188 179 167 165 166 164 160 152 149 143 144 167 177 208 208 190 175 179 191 208 205 190 195 208
227 246 250 248 244 195 222 237 223 228 223 227 225 229 245 212 187 181 175 174 157 154 150 154 153 155 148 144 145 153 176 230 226 217 213 199 182 176 199 206 195 183 195 205
222 228 232 219 185 217 232 236 253 254 257 238 235 170 162 136 131 137 140 142 141 138 133 136 138 139 136 140 138 148 168 190 209 204 183 190 182 165 190 189 190 185 193 204
209 219 309 210 230 217 258 257 250 255 234 212 165 162 142 131 129 128 127 127 127 123 118 117 123 130 133 135 146 148 178 200 199 188 181 188 176 180 175 186 193 199 209 211
237 211 219 224 233 250 261 254 248 206 154 148 141 139 130 129 128 124 120 118 117 114 109 108 117 121 128 142 169 204 210 185 189 174 189 181 171 183 175 185 198 207 211 214
244 245 206 215 227 237 232 192 157 144 142 143 138 134 130 125 120 116 113 113 114 111 106 101 99 99 108 131 161 179 193 187 173 185 189 193 172 171 183 188 201 208 209 212
235 214 213 213 208 189 163 159 153 142 136 139 139 133 130 126 126 118 108 106 103 100 98 93 88 87 89 101 124 157 181 184 163 228 190 191 201 205 204 206 204 207 211 205
278 306 224 229 179 167 152 149 146 142 134 135 133 131 124 121 120 119 117 114 108 108 106 103 97 90 91 84 87 144 170 227 198 208 205 195 204 202 191 198 214 224 239 230
257 257 209 174 164 156 144 139 136 133 128 125 127 125 122 124 124 121 123 124 125 125 121 122 120 122 108 82 184 303 311 214 140 162 191 188 170 173 181 206 196 214 207 193
226 201 187 159 147 146 142 137 133 129 125 121 121 122 122 123 125 127 135 137 135 138 140 141 116 113 100 97 256 172 142 174 170 181 184 178 168 176 192 195 179 167 171 167
180 158 147 140 138 137 135 132 125 124 125 125 124 120 123 125 125 130 139 142 137 164 142 122 108 96 50 218 202 156 165 171 146 150 167 176 196 199 189 173 171 176 170 169
162 151 141 134 132 132 126 120 119 123 125 122 121 122 124 122 126 137 147 157 162 151 134 126 123 100 130 172 185 176 139 155 168 178 203 202 200 207 195 188 182 180 173 175
138 135 132 125 120 115 111 109 110 112 109 110 112 116 121 125 131 132 150 167 160 148 144 151 163 157 46 249 237 141 147 174 203 191 213 211 215 197 195 193 182 177 173 183
120 114 109 106 107 106 106 105 103 102 104 110 121 126 133 126 130 124 131 145 154 152 152 170 199 288 282 251 158 173 163 179 190 191 197 205 198 188 183 178 173 171 174 172
97 96 95 96 97 99 103 104 105 104 103 112 122 133 143 146 144 140 141 148 161 166 190 207 220 281 291 252 199 176 169 164 175 189 184 189 190 177 172 171 167 168 174 170
100 97 93 93 93 93 96 100 105 105 106 111 129 153 172 173 160 170 176 185 194 195 191 206 165 217 195 208 155 184 192 193 204 208 204 200 179 165 162 162 168 169 163 164
91 90 89 93 97 96 95 97 99 100 97 100 108 135 154 160 169 177 185 198 186 197 165 182 194 197 204 153 167 176 175 182 194 202 208 203 181 166 165 162 163 172 167 162
82 92 101 96 94 93 91 90 92 95 100 95 106 114 126 135 147 166 168 168 170 172 162 185 205 182 156 132 160 162 172 173 168 154 154 163 148 153 149 152 156 160 167 166
96 93 92 95 97 95 93 92 92 92 94 99 104 124 115 111 116 123 142 161 168 150 167 175 147 135 117 141 138 138 139 123 139 149 153 145 137 137 146 153 156 164 166 166
94 89 87 85 82 81 83 86 88 85 89 98 106 99 90 120 107 130 133 158 155 139 158 150 138 126 130 144 138 136 132 133 132 135 147 154 151 144 158 160 166 168 172 175
79 77 75 77 75 72 72 71 71 75 73 104 95 116 108 109 150 138 147 151 155 150 157 158 152 143 158 154 152 150 150 151 139 146 151 149 157 157 159 165 172 168 175 179
81 83 73 67 58 58 59 64 67 69 73 82 95 104 105 119 119 135 141 133 138 152 164 168 172 177 175 175 179 176 178 183 176 175 169 167 164 170 176 177 175 177 181 187